Tracking 22124 objects as of 24-Jan-2021
HD Live streaming from Space Station
objects crossing your sky now

ONEWEB-0117

Track ONEWEB-0117 now!
10-day predictions
ONEWEB-0117 is classified as:


NORAD ID: 47263
Int'l Code: 2020-100F
Perigee: 638.7 km
Apogee: 655.0 km
Inclination: 87.3 °
Period: 97.5 minutes
Semi major axis: 7017 km
RCS: Unknown
Launch date: December 18, 2020
Source: United Kingdom (UK)
Launch site: VOSTOCHNY COSMODROME (VOSTO)
aabbcc
Your satellite tracking list
Your tracking list is empty




NASA's NSSDC Master Catalog

Two Line Element Set (TLE):
1 47263U 20100F   21024.16667824 -.01423987  00000-0 -22008+0 0  9991
2 47263  87.3050  26.9477 0011637 145.0956 245.3722 14.76707457  5570
Source of the keplerian elements: AFSPC